Location: Grange Verzio
(44.5000°N, 6.9833°E)
Time: 18:16:49
(UTC+00:00)

SKYMED 2 - Pass Details

Date: 01 February 2023
Orbit: 621 x 623 km, 97.9° (Epoch: 30 March)

Event Time Altitude Azimuth Distance (km) Brightness Sun altitude
Rises 15:58:06 0° 43° (NE) 2,906 6.4 5.9°
Enters shadow 17:17:33 -37° 6° (N) 8,697 9.2 -7.0°
Maximum altitude 17:39:16 71° 102° (ESE) 659 3.5 -10.7°
